EN

Hourly Weather Altlinster

Today, 20 January, Wednesday

Time Temperature Precipitation Wind Pressure Humidity
00:00 -2°C° 0 mm 4 mps 724 mmHg 88%
01:00 -2°C° 0 mm 4 mps 723 mmHg 87%
02:00 -2°C° 0 mm 4 mps 723 mmHg 87%
03:00 -2°C° 0 mm 4 mps 722 mmHg 87%
04:00 -2°C° 0 mm 4 mps 722 mmHg 86%
05:00 -2°C° 0 mm 4 mps 722 mmHg 86%
06:00 -1°C° 0 mm 4 mps 721 mmHg 86%
07:00 -1°C° 0 mm 4 mps 721 mmHg 86%
08:00 0°C° 0 mm 4 mps 721 mmHg 86%
09:00 0°C° 0 mm 4 mps 721 mmHg 86%
10:00 +1°C° 0 mm 4 mps 721 mmHg 86%
11:00 +2°C° 0 mm 5 mps 720 mmHg 86%
12:00 +3°C° 0 mm 5 mps 720 mmHg 86%
13:00 +3°C° 0 mm 5 mps 719 mmHg 87%
14:00 +3°C° 0 mm 5 mps 719 mmHg 88%
15:00 +3°C° 0 mm 5 mps 718 mmHg 89%
16:00 +3°C° 0 mm 5 mps 718 mmHg 90%
17:00 +3°C° 0 mm 5 mps 717 mmHg 90%
18:00 +2°C° 0 mm 5 mps 717 mmHg 90%
19:00 +2°C° 0 mm 5 mps 717 mmHg 89%
20:00 +2°C° 0 mm 6 mps 716 mmHg 88%
21:00 +3°C° 0 mm 6 mps 716 mmHg 87%
22:00 +3°C° 0 mm 7 mps 716 mmHg 85%
23:00 +2°C° 0 mm 8 mps 715 mmHg 83%

Tomorrow, 21 January, Thursday

Time Temperature Precipitation Wind Pressure Humidity
00:00 +3°C° 0 mm 9 mps 715 mmHg 81%
01:00 +3°C° 0.2 mm 10 mps 714 mmHg 82%
02:00 +5°C° 0.2 mm 10 mps 714 mmHg 83%
03:00 +4°C° 0.2 mm 11 mps 713 mmHg 84%
04:00 +4°C° 0.3 mm 11 mps 713 mmHg 84%
05:00 +4°C° 0.3 mm 11 mps 713 mmHg 84%
06:00 +6°C° 0.3 mm 11 mps 714 mmHg 84%
07:00 +3°C° 1.2 mm 9 mps 714 mmHg 84%
08:00 +3°C° 1.2 mm 7 mps 715 mmHg 84%
09:00 +2°C° 1.2 mm 6 mps 715 mmHg 83%
10:00 +3°C° 0 mm 6 mps 716 mmHg 79%
11:00 +3°C° 0 mm 7 mps 716 mmHg 75%
12:00 +4°C° 0 mm 8 mps 716 mmHg 71%
13:00 +4°C° 0 mm 7 mps 716 mmHg 74%
14:00 +4°C° 0 mm 6 mps 715 mmHg 77%
15:00 +3°C° 0 mm 6 mps 714 mmHg 80%
16:00 +4°C° 0.7 mm 6 mps 714 mmHg 84%
17:00 +4°C° 0.7 mm 6 mps 713 mmHg 89%
18:00 +4°C° 0.7 mm 6 mps 712 mmHg 93%
19:00 +5°C° 1.2 mm 8 mps 711 mmHg 90%
20:00 +5°C° 1.2 mm 10 mps 710 mmHg 87%
21:00 +5°C° 1.2 mm 12 mps 709 mmHg 84%
22:00 +5°C° 0.7 mm 12 mps 709 mmHg 84%
23:00 +5°C° 0.7 mm 12 mps 709 mmHg 84%

Day after tomorrow, 22 January, Friday

Time Temperature Precipitation Wind Pressure Humidity
00:00 +5°C° 0.7 mm 12 mps 708 mmHg 83%
01:00 +3°C° 0.9 mm 11 mps 709 mmHg 86%
02:00 +2°C° 0.9 mm 10 mps 710 mmHg 89%
03:00 0°C° 0.9 mm 8 mps 710 mmHg 92%
04:00 0°C° 0 mm 7 mps 711 mmHg 91%
05:00 +1°C° 0 mm 5 mps 712 mmHg 89%
06:00 +1°C° 0 mm 4 mps 712 mmHg 88%
07:00 +1°C° 0 mm 4 mps 712 mmHg 88%
08:00 +1°C° 0 mm 4 mps 712 mmHg 88%
09:00 +1°C° 0 mm 4 mps 712 mmHg 88%
10:00 +3°C° 0.1 mm 4 mps 713 mmHg 86%
11:00 +3°C° 0.1 mm 4 mps 713 mmHg 83%
12:00 +3°C° 0.1 mm 4 mps 713 mmHg 80%
13:00 +3°C° 0.1 mm 4 mps 714 mmHg 81%
14:00 +3°C° 0.1 mm 4 mps 714 mmHg 81%
15:00 +3°C° 0.1 mm 3 mps 714 mmHg 81%
16:00 +2°C° 0 mm 3 mps 714 mmHg 85%
17:00 +1°C° 0 mm 3 mps 714 mmHg 89%
18:00 +2°C° 0 mm 2 mps 714 mmHg 93%
19:00 +1°C° 0 mm 2 mps 714 mmHg 93%
20:00 +1°C° 0 mm 2 mps 714 mmHg 93%
21:00 +1°C° 0 mm 2 mps 714 mmHg 94%
22:00 +1°C° 0 mm 2 mps 714 mmHg 94%
23:00 -1°C° 0 mm 2 mps 714 mmHg 95%

23 January, Saturday

Time Temperature Precipitation Wind Pressure Humidity
00:00 -1°C° 0 mm 2 mps 714 mmHg 96%
01:00 0°C° 0 mm 3 mps 713 mmHg 96%
02:00 0°C° 0 mm 3 mps 713 mmHg 96%
03:00 -1°C° 0 mm 4 mps 713 mmHg 96%
04:00 -1°C° 0.1 mm 4 mps 713 mmHg 96%
05:00 -1°C° 0.1 mm 4 mps 713 mmHg 96%
06:00 0°C° 0.1 mm 4 mps 713 mmHg 96%
07:00 0°C° 0.1 mm 4 mps 713 mmHg 94%
08:00 0°C° 0.1 mm 4 mps 713 mmHg 92%
09:00 0°C° 0.1 mm 4 mps 713 mmHg 90%
10:00 0°C° 0 mm 4 mps 713 mmHg 91%
11:00 0°C° 0 mm 4 mps 714 mmHg 92%
12:00 0°C° 0 mm 4 mps 714 mmHg 93%
13:00 0°C° 0.1 mm 4 mps 714 mmHg 92%
14:00 0°C° 0.1 mm 4 mps 714 mmHg 90%
15:00 0°C° 0.1 mm 4 mps 715 mmHg 88%
16:00 0°C° 0 mm 3 mps 715 mmHg 89%
17:00 -1°C° 0 mm 3 mps 716 mmHg 89%
18:00 -1°C° 0 mm 2 mps 716 mmHg 89%
19:00 -2°C° 0 mm 2 mps 716 mmHg 91%
20:00 -2°C° 0 mm 2 mps 717 mmHg 92%
21:00 -2°C° 0 mm 2 mps 717 mmHg 93%
22:00 -2°C° 0 mm 2 mps 717 mmHg 93%
23:00 0°C° 0 mm 1 mps 717 mmHg 94%

24 January, Sunday

Time Temperature Precipitation Wind Pressure Humidity
00:00 -1°C° 0 mm 1 mps 717 mmHg 95%
01:00 -1°C° 0 mm 1 mps 717 mmHg 95%
02:00 0°C° 0 mm 1 mps 717 mmHg 95%
03:00 0°C° 0 mm 1 mps 717 mmHg 95%
04:00 0°C° 0.6 mm 1 mps 717 mmHg 96%
05:00 -2°C° 0.6 mm 2 mps 717 mmHg 96%
06:00 -2°C° 0.6 mm 2 mps 717 mmHg 96%
07:00 -1°C° 0.1 mm 3 mps 717 mmHg 94%
08:00 -1°C° 0.1 mm 3 mps 717 mmHg 92%
09:00 -2°C° 0.1 mm 4 mps 717 mmHg 89%
10:00 -2°C° 0 mm 4 mps 717 mmHg 88%
11:00 -1°C° 0 mm 4 mps 716 mmHg 86%
12:00 -1°C° 0 mm 4 mps 716 mmHg 85%
13:00 -1°C° 0.9 mm 4 mps 716 mmHg 88%
14:00 -2°C° 0.9 mm 4 mps 715 mmHg 92%
15:00 -2°C° 0.9 mm 4 mps 715 mmHg 95%
16:00 -2°C° 0.1 mm 4 mps 715 mmHg 94%
17:00 -2°C° 0.1 mm 3 mps 715 mmHg 93%
18:00 -3°C° 0.1 mm 2 mps 715 mmHg 92%
19:00 -3°C° 0.2 mm 2 mps 716 mmHg 94%
20:00 -3°C° 0.2 mm 2 mps 716 mmHg 95%
21:00 -3°C° 0.2 mm 2 mps 717 mmHg 96%
22:00 -3°C° 0.2 mm 2 mps 717 mmHg 96%
23:00 -4°C° 0.2 mm 2 mps 717 mmHg 96%

25 January, Monday

Time Temperature Precipitation Wind Pressure Humidity
00:00 -4°C° 0.2 mm 2 mps 718 mmHg 96%
01:00 -3°C° 0.1 mm 2 mps 718 mmHg 95%
02:00 -3°C° 0.1 mm 2 mps 718 mmHg 95%
03:00 -2°C° 0.1 mm 2 mps 718 mmHg 95%
04:00 -2°C° 0.2 mm 2 mps 718 mmHg 96%
05:00 -2°C° 0.2 mm 2 mps 718 mmHg 97%
06:00 -2°C° 0.2 mm 2 mps 718 mmHg 98%
07:00 -2°C° 0.2 mm 3 mps 719 mmHg 96%
08:00 -2°C° 0.2 mm 4 mps 719 mmHg 95%
09:00 -2°C° 0.2 mm 5 mps 720 mmHg 93%
10:00 -2°C° 0.2 mm 5 mps 720 mmHg 94%
11:00 -2°C° 0.2 mm 5 mps 721 mmHg 94%
12:00 -1°C° 0.2 mm 5 mps 721 mmHg 95%
13:00 -1°C° 0.1 mm 5 mps 721 mmHg 94%
14:00 -1°C° 0.1 mm 5 mps 722 mmHg 93%
15:00 -1°C° 0.1 mm 4 mps 722 mmHg 92%
16:00 -1°C° 0 mm 4 mps 723 mmHg 92%
17:00 -2°C° 0 mm 4 mps 723 mmHg 93%
18:00 -2°C° 0 mm 4 mps 724 mmHg 93%
19:00 -3°C° 0 mm 4 mps 724 mmHg 93%
20:00 -2°C° 0 mm 3 mps 725 mmHg 94%
21:00 -4°C° 0 mm 3 mps 725 mmHg 94%
22:00 -4°C° 0 mm 3 mps 726 mmHg 94%
23:00 -4°C° 0 mm 3 mps 726 mmHg 94%
Show more